Year,Month,Day,Hour,Minute,Value (Times are PST for temperature in C)
2007,08,15,00,00,14.70
2007,08,15,00,01,14.70
2007,08,15,00,02,14.70
2007,08,15,00,03,14.70
2007,08,15,00,04,14.60
2007,08,15,00,05,14.60
2007,08,15,00,06,14.70
2007,08,15,00,07,14.70
2007,08,15,00,08,14.70
2007,08,15,00,09,14.80
2007,08,15,00,10,14.80
2007,08,15,00,11,14.80
2007,08,15,00,12,14.80
2007,08,15,00,13,14.80
2007,08,15,00,14,14.90
2007,08,15,00,15,14.80
2007,08,15,00,16,14.80
2007,08,15,00,17,14.80
2007,08,15,00,18,14.80
2007,08,15,00,19,14.80
2007,08,15,00,20,14.80
2007,08,15,00,21,14.80
2007,08,15,00,22,14.70
2007,08,15,00,23,14.70
2007,08,15,00,24,14.70
2007,08,15,00,25,14.70
2007,08,15,00,26,14.70
2007,08,15,00,27,14.70
2007,08,15,00,28,14.70
2007,08,15,00,29,14.70
2007,08,15,00,30,14.70
2007,08,15,00,31,14.70
2007,08,15,00,32,14.70
2007,08,15,00,33,14.70
2007,08,15,00,34,14.70
2007,08,15,00,35,14.70
2007,08,15,00,36,14.70
2007,08,15,00,37,14.70
2007,08,15,00,38,14.70
2007,08,15,00,39,14.70
2007,08,15,00,40,14.70
2007,08,15,00,41,14.70
2007,08,15,00,42,14.70
2007,08,15,00,43,14.70
2007,08,15,00,44,14.60
2007,08,15,00,45,14.60
2007,08,15,00,46,14.60
2007,08,15,00,47,14.50
2007,08,15,00,48,14.50
2007,08,15,00,49,14.40
2007,08,15,00,50,14.40
2007,08,15,00,51,14.40
2007,08,15,00,52,14.40
2007,08,15,00,53,14.40
2007,08,15,00,54,14.30
2007,08,15,00,55,14.30
2007,08,15,00,56,14.30
2007,08,15,00,57,14.30
2007,08,15,00,58,14.20
2007,08,15,00,59,14.20
2007,08,15,01,00,14.20
2007,08,15,01,01,14.20
2007,08,15,01,02,14.20
2007,08,15,01,03,14.20
2007,08,15,01,04,14.20
2007,08,15,01,05,14.20
2007,08,15,01,06,14.20
2007,08,15,01,07,14.10
2007,08,15,01,08,14.10
2007,08,15,01,09,14.10
2007,08,15,01,10,14.10
2007,08,15,01,11,14.10
2007,08,15,01,12,14.10
2007,08,15,01,13,14.00
2007,08,15,01,14,14.00
2007,08,15,01,15,14.00
2007,08,15,01,16,14.00
2007,08,15,01,17,13.90
2007,08,15,01,18,13.90
2007,08,15,01,19,13.90
2007,08,15,01,20,13.90
2007,08,15,01,21,13.90
2007,08,15,01,22,13.90
2007,08,15,01,23,13.80
2007,08,15,01,24,13.80
2007,08,15,01,25,13.80
2007,08,15,01,26,13.80
2007,08,15,01,27,13.80
2007,08,15,01,28,13.80
2007,08,15,01,29,13.80
2007,08,15,01,30,13.80
2007,08,15,01,31,13.80
2007,08,15,01,32,13.80
2007,08,15,01,33,13.80
2007,08,15,01,34,13.80
2007,08,15,01,35,13.80
2007,08,15,01,36,13.80
2007,08,15,01,37,13.80
2007,08,15,01,38,13.80
2007,08,15,01,39,13.80
2007,08,15,01,40,13.70
2007,08,15,01,41,13.70
2007,08,15,01,42,13.70
2007,08,15,01,43,13.70
2007,08,15,01,44,13.60
2007,08,15,01,45,13.60
2007,08,15,01,46,13.60
2007,08,15,01,47,13.60
2007,08,15,01,48,13.60
2007,08,15,01,49,13.60
2007,08,15,01,50,13.60
2007,08,15,01,51,13.60
2007,08,15,01,52,13.60
2007,08,15,01,53,13.50
2007,08,15,01,54,13.50
2007,08,15,01,55,13.50
2007,08,15,01,56,13.40
2007,08,15,01,57,13.40
2007,08,15,01,58,13.40
2007,08,15,01,59,13.30
2007,08,15,02,00,13.30
2007,08,15,02,01,13.30
2007,08,15,02,02,13.30
2007,08,15,02,03,13.20
2007,08,15,02,04,13.20
2007,08,15,02,05,13.20
2007,08,15,02,06,13.20
2007,08,15,02,07,13.20
2007,08,15,02,08,13.30
2007,08,15,02,09,13.30
2007,08,15,02,10,13.30
2007,08,15,02,11,13.40
2007,08,15,02,12,13.40
2007,08,15,02,13,13.40
2007,08,15,02,14,13.40
2007,08,15,02,15,13.40
2007,08,15,02,16,13.30
2007,08,15,02,17,13.30
2007,08,15,02,18,13.30
2007,08,15,02,19,13.30
2007,08,15,02,20,13.30
2007,08,15,02,21,13.30
2007,08,15,02,22,13.20
2007,08,15,02,23,13.20
2007,08,15,02,24,13.20
2007,08,15,02,25,13.10
2007,08,15,02,26,13.10
2007,08,15,02,27,13.10
2007,08,15,02,28,13.00
2007,08,15,02,29,13.00
2007,08,15,02,30,13.00
2007,08,15,02,31,13.00
2007,08,15,02,32,13.00
2007,08,15,02,33,12.90
2007,08,15,02,34,13.00
2007,08,15,02,35,13.00
2007,08,15,02,36,13.10
2007,08,15,02,37,13.10
2007,08,15,02,38,13.20
2007,08,15,02,39,13.30
2007,08,15,02,40,13.30
2007,08,15,02,41,13.40
2007,08,15,02,42,13.40
2007,08,15,02,43,13.50
2007,08,15,02,44,13.60
2007,08,15,02,45,13.70
2007,08,15,02,46,13.70
2007,08,15,02,47,13.80
2007,08,15,02,48,13.80
2007,08,15,02,49,13.80
2007,08,15,02,50,13.90
2007,08,15,02,51,13.90
2007,08,15,02,52,13.90
2007,08,15,02,53,13.90
2007,08,15,02,54,13.90
2007,08,15,02,55,13.90
2007,08,15,02,56,13.90
2007,08,15,02,57,13.90
2007,08,15,02,58,13.90
2007,08,15,02,59,13.90
2007,08,15,03,00,13.80
2007,08,15,03,01,13.80
2007,08,15,03,02,13.80
2007,08,15,03,03,13.80
2007,08,15,03,04,13.80
2007,08,15,03,05,13.80
2007,08,15,03,06,13.80
2007,08,15,03,07,13.70
2007,08,15,03,08,13.70
2007,08,15,03,09,13.70
2007,08,15,03,10,13.70
2007,08,15,03,11,13.60
2007,08,15,03,12,13.60
2007,08,15,03,13,13.50
2007,08,15,03,14,13.40
2007,08,15,03,15,13.40
2007,08,15,03,16,13.30
2007,08,15,03,17,13.20
2007,08,15,03,18,13.20
2007,08,15,03,19,13.10
2007,08,15,03,20,13.10
2007,08,15,03,21,13.00
2007,08,15,03,22,12.90
2007,08,15,03,23,12.80
2007,08,15,03,24,12.80
2007,08,15,03,25,12.70
2007,08,15,03,26,12.60
2007,08,15,03,27,12.60
2007,08,15,03,28,12.50
2007,08,15,03,29,12.40
2007,08,15,03,30,12.40
2007,08,15,03,31,12.30
2007,08,15,03,32,12.30
2007,08,15,03,33,12.30
2007,08,15,03,34,12.30
2007,08,15,03,35,12.30
2007,08,15,03,36,12.40
2007,08,15,03,37,12.50
2007,08,15,03,38,12.60
2007,08,15,03,39,12.70
2007,08,15,03,40,12.80
2007,08,15,03,41,12.90
2007,08,15,03,42,12.90
2007,08,15,03,43,12.90
2007,08,15,03,44,12.90
2007,08,15,03,45,12.90
2007,08,15,03,46,12.90
2007,08,15,03,47,12.90
2007,08,15,03,48,12.90
2007,08,15,03,49,12.90
2007,08,15,03,50,12.90
2007,08,15,03,51,12.90
2007,08,15,03,52,12.90
2007,08,15,03,53,12.90
2007,08,15,03,54,13.00
2007,08,15,03,55,13.00
2007,08,15,03,56,13.00
2007,08,15,03,57,13.00
2007,08,15,03,58,13.10
2007,08,15,03,59,13.10
2007,08,15,04,00,13.10
2007,08,15,04,01,13.10
2007,08,15,04,02,13.10
2007,08,15,04,03,13.10
2007,08,15,04,04,13.10
2007,08,15,04,05,13.10
2007,08,15,04,06,13.10
2007,08,15,04,07,13.00
2007,08,15,04,08,13.00
2007,08,15,04,09,13.00
2007,08,15,04,10,12.90
2007,08,15,04,11,12.90
2007,08,15,04,12,12.90
2007,08,15,04,13,12.80
2007,08,15,04,14,12.80
2007,08,15,04,15,12.80
2007,08,15,04,16,12.80
2007,08,15,04,17,12.80
2007,08,15,04,18,12.80
2007,08,15,04,19,12.80
2007,08,15,04,20,12.80
2007,08,15,04,21,12.80
2007,08,15,04,22,12.80
2007,08,15,04,23,12.80
2007,08,15,04,24,12.70
2007,08,15,04,25,12.70
2007,08,15,04,26,12.70
2007,08,15,04,27,12.70
2007,08,15,04,28,12.70
2007,08,15,04,29,12.70
2007,08,15,04,30,12.70
2007,08,15,04,31,12.70
2007,08,15,04,32,12.70
2007,08,15,04,33,12.60
2007,08,15,04,34,12.60
2007,08,15,04,35,12.60
2007,08,15,04,36,12.50
2007,08,15,04,37,12.50
2007,08,15,04,38,12.50
2007,08,15,04,39,12.40
2007,08,15,04,40,12.40
2007,08,15,04,41,12.40
2007,08,15,04,42,12.40
2007,08,15,04,43,12.40
2007,08,15,04,44,12.40
2007,08,15,04,45,12.40
2007,08,15,04,46,12.40
2007,08,15,04,47,12.40
2007,08,15,04,48,12.40
2007,08,15,04,49,12.40
2007,08,15,04,50,12.40
2007,08,15,04,51,12.40
2007,08,15,04,52,12.40
2007,08,15,04,53,12.40
2007,08,15,04,54,12.30
2007,08,15,04,55,12.30
2007,08,15,04,56,12.30
2007,08,15,04,57,12.30
2007,08,15,04,58,12.30
2007,08,15,04,59,12.30
2007,08,15,05,00,12.30
2007,08,15,05,01,12.30
2007,08,15,05,02,12.30
2007,08,15,05,03,12.20
2007,08,15,05,04,12.20
2007,08,15,05,05,12.20
2007,08,15,05,06,12.20
2007,08,15,05,07,12.20
2007,08,15,05,08,12.20
2007,08,15,05,09,12.20
2007,08,15,05,10,12.20
2007,08,15,05,11,12.20
2007,08,15,05,12,12.20
2007,08,15,05,13,12.20
2007,08,15,05,14,12.20
2007,08,15,05,15,12.20
2007,08,15,05,16,12.20
2007,08,15,05,17,12.20
2007,08,15,05,18,12.10
2007,08,15,05,19,12.10
2007,08,15,05,20,12.10
2007,08,15,05,21,12.10
2007,08,15,05,22,12.10
2007,08,15,05,23,12.20
2007,08,15,05,24,12.20
2007,08,15,05,25,12.20
2007,08,15,05,26,12.20
2007,08,15,05,27,12.20
2007,08,15,05,28,12.20
2007,08,15,05,29,12.20
2007,08,15,05,30,12.20
2007,08,15,05,31,12.20
2007,08,15,05,32,12.20
2007,08,15,05,33,12.30
2007,08,15,05,34,12.30
2007,08,15,05,35,12.30
2007,08,15,05,36,12.40
2007,08,15,05,37,12.40
2007,08,15,05,38,12.40
2007,08,15,05,39,12.40
2007,08,15,05,40,12.40
2007,08,15,05,41,12.30
2007,08,15,05,42,12.30
2007,08,15,05,43,12.30
2007,08,15,05,44,12.30
2007,08,15,05,45,12.30
2007,08,15,05,46,12.30
2007,08,15,05,47,12.20
2007,08,15,05,48,12.20
2007,08,15,05,49,12.20
2007,08,15,05,50,12.20
2007,08,15,05,51,12.20
2007,08,15,05,52,12.20
2007,08,15,05,53,12.20
2007,08,15,05,54,12.20
2007,08,15,05,55,12.20
2007,08,15,05,56,12.20
2007,08,15,05,57,12.20
2007,08,15,05,58,12.20
2007,08,15,05,59,12.20
2007,08,15,06,00,12.20
2007,08,15,06,01,12.30
2007,08,15,06,02,12.30
2007,08,15,06,03,12.30
2007,08,15,06,04,12.30
2007,08,15,06,05,12.40
2007,08,15,06,06,12.40
2007,08,15,06,07,12.40
2007,08,15,06,08,12.40
2007,08,15,06,09,12.40
2007,08,15,06,10,12.50
2007,08,15,06,11,12.50
2007,08,15,06,12,12.50
2007,08,15,06,13,12.50
2007,08,15,06,14,12.60
2007,08,15,06,15,12.60
2007,08,15,06,16,12.60
2007,08,15,06,17,12.60
2007,08,15,06,18,12.60
2007,08,15,06,19,12.60
2007,08,15,06,20,12.60
2007,08,15,06,21,12.60
2007,08,15,06,22,12.60
2007,08,15,06,23,12.60
2007,08,15,06,24,12.60
2007,08,15,06,25,12.60
2007,08,15,06,26,12.60
2007,08,15,06,27,12.70
2007,08,15,06,28,12.70
2007,08,15,06,29,12.70
2007,08,15,06,30,12.70
2007,08,15,06,31,12.70
2007,08,15,06,32,12.70
2007,08,15,06,33,12.80
2007,08,15,06,34,12.80
2007,08,15,06,35,12.80
2007,08,15,06,36,12.80
2007,08,15,06,37,12.80
2007,08,15,06,38,12.90
2007,08,15,06,39,12.90
2007,08,15,06,40,12.90
2007,08,15,06,41,12.90
2007,08,15,06,42,12.90
2007,08,15,06,43,12.90
2007,08,15,06,44,12.90
2007,08,15,06,45,12.90
2007,08,15,06,46,12.90
2007,08,15,06,47,12.90
2007,08,15,06,48,12.90
2007,08,15,06,49,12.90
2007,08,15,06,50,12.90
2007,08,15,06,51,12.90
2007,08,15,06,52,12.90
2007,08,15,06,53,12.90
2007,08,15,06,54,12.90
2007,08,15,06,55,12.90
2007,08,15,06,56,12.90
2007,08,15,06,57,12.90
2007,08,15,06,58,12.90
2007,08,15,06,59,12.90
2007,08,15,07,00,13.00
2007,08,15,07,01,13.00
2007,08,15,07,02,13.10
2007,08,15,07,03,13.10
2007,08,15,07,04,13.20
2007,08,15,07,05,13.20
2007,08,15,07,06,13.30
2007,08,15,07,07,13.30
2007,08,15,07,08,13.30
2007,08,15,07,09,13.40
2007,08,15,07,10,13.40
2007,08,15,07,11,13.40
2007,08,15,07,12,13.50
2007,08,15,07,13,13.50
2007,08,15,07,14,13.60
2007,08,15,07,15,13.60
2007,08,15,07,16,13.60
2007,08,15,07,17,13.70
2007,08,15,07,18,13.70
2007,08,15,07,19,13.70
2007,08,15,07,20,13.80
2007,08,15,07,21,13.80
2007,08,15,07,22,13.90
2007,08,15,07,23,13.90
2007,08,15,07,24,13.90
2007,08,15,07,25,14.00
2007,08,15,07,26,14.00
2007,08,15,07,27,14.10
2007,08,15,07,28,14.10
2007,08,15,07,29,14.10
2007,08,15,07,30,14.20
2007,08,15,07,31,14.20
2007,08,15,07,32,14.20
2007,08,15,07,33,14.20
2007,08,15,07,34,14.30
2007,08,15,07,35,14.30
2007,08,15,07,36,14.30
2007,08,15,07,37,14.40
2007,08,15,07,38,14.40
2007,08,15,07,39,14.50
2007,08,15,07,40,14.50
2007,08,15,07,41,14.60
2007,08,15,07,42,14.60
2007,08,15,07,43,14.70
2007,08,15,07,44,14.70
2007,08,15,07,45,14.80
2007,08,15,07,46,14.90
2007,08,15,07,47,14.90
2007,08,15,07,48,15.00
2007,08,15,07,49,15.00
2007,08,15,07,50,15.00
2007,08,15,07,51,15.00
2007,08,15,07,52,15.00
2007,08,15,07,53,15.00
2007,08,15,07,54,15.00
2007,08,15,07,55,15.00
2007,08,15,07,56,15.00
2007,08,15,07,57,15.10
2007,08,15,07,58,15.20
2007,08,15,07,59,15.30
2007,08,15,08,00,15.40
2007,08,15,08,01,15.50
2007,08,15,08,02,15.60
2007,08,15,08,03,15.70
2007,08,15,08,04,15.80
2007,08,15,08,05,15.90
2007,08,15,08,06,16.10
2007,08,15,08,07,16.20
2007,08,15,08,08,16.30
2007,08,15,08,09,16.40
2007,08,15,08,10,16.50
2007,08,15,08,11,16.60
2007,08,15,08,12,16.80
2007,08,15,08,13,16.90
2007,08,15,08,14,17.00
2007,08,15,08,15,17.20
2007,08,15,08,16,17.30
2007,08,15,08,17,17.50
2007,08,15,08,18,17.60
2007,08,15,08,19,17.70
2007,08,15,08,20,17.80
2007,08,15,08,21,17.90
2007,08,15,08,22,18.00
2007,08,15,08,23,18.00
2007,08,15,08,24,18.20
2007,08,15,08,25,18.20
2007,08,15,08,26,18.30
2007,08,15,08,27,18.40
2007,08,15,08,28,18.50
2007,08,15,08,29,18.50
2007,08,15,08,30,18.60
2007,08,15,08,31,18.60
2007,08,15,08,32,18.60
2007,08,15,08,33,18.70
2007,08,15,08,34,18.70
2007,08,15,08,35,18.70
2007,08,15,08,36,18.70
2007,08,15,08,37,18.70
2007,08,15,08,38,18.70
2007,08,15,08,39,18.70
2007,08,15,08,40,18.70
2007,08,15,08,41,18.70
2007,08,15,08,42,18.80
2007,08,15,08,43,18.70
2007,08,15,08,44,18.70
2007,08,15,08,45,18.70
2007,08,15,08,46,18.70
2007,08,15,08,47,18.70
2007,08,15,08,48,18.70
2007,08,15,08,49,18.80
2007,08,15,08,50,18.80
2007,08,15,08,51,18.80
2007,08,15,08,52,18.70
2007,08,15,08,53,18.70
2007,08,15,08,54,18.70
2007,08,15,08,55,18.70
2007,08,15,08,56,18.70
2007,08,15,08,57,18.70
2007,08,15,08,58,18.70
2007,08,15,08,59,18.70
2007,08,15,09,00,18.70
2007,08,15,09,01,18.80
2007,08,15,09,02,18.80
2007,08,15,09,03,18.80
2007,08,15,09,04,18.80
2007,08,15,09,05,18.90
2007,08,15,09,06,18.90
2007,08,15,09,07,18.90
2007,08,15,09,08,18.90
2007,08,15,09,09,18.90
2007,08,15,09,10,18.90
2007,08,15,09,11,18.90
2007,08,15,09,12,18.90
2007,08,15,09,13,18.90
2007,08,15,09,14,18.90
2007,08,15,09,15,18.90
2007,08,15,09,16,18.90
2007,08,15,09,17,18.90
2007,08,15,09,18,18.90
2007,08,15,09,19,18.90
2007,08,15,09,20,18.90
2007,08,15,09,21,18.90
2007,08,15,09,22,18.90
2007,08,15,09,23,19.00
2007,08,15,09,24,19.00
2007,08,15,09,25,19.00
2007,08,15,09,26,19.10
2007,08,15,09,27,19.10
2007,08,15,09,28,19.10
2007,08,15,09,29,19.00
2007,08,15,09,30,19.00
2007,08,15,09,31,19.00
2007,08,15,09,32,19.00
2007,08,15,09,33,19.00
2007,08,15,09,34,19.00
2007,08,15,09,35,19.10
2007,08,15,09,36,19.10
2007,08,15,09,37,19.10
2007,08,15,09,38,19.20
2007,08,15,09,39,19.20
2007,08,15,09,40,19.20
2007,08,15,09,41,19.20
2007,08,15,09,42,19.20
2007,08,15,09,43,19.10
2007,08,15,09,44,19.10
2007,08,15,09,45,19.20
2007,08,15,09,46,19.20
2007,08,15,09,47,19.30
2007,08,15,09,48,19.30
2007,08,15,09,49,19.30
2007,08,15,09,50,19.30
2007,08,15,09,51,19.30
2007,08,15,09,52,19.40
2007,08,15,09,53,19.40
2007,08,15,09,54,19.50
2007,08,15,09,55,19.50
2007,08,15,09,56,19.40
2007,08,15,09,57,19.40
2007,08,15,09,58,19.40
2007,08,15,09,59,19.40
2007,08,15,10,00,19.50
2007,08,15,10,01,19.50
2007,08,15,10,02,19.40
2007,08,15,10,03,19.40
2007,08,15,10,04,19.40
2007,08,15,10,05,19.30
2007,08,15,10,06,19.30
2007,08,15,10,07,19.30
2007,08,15,10,08,19.30
2007,08,15,10,09,19.30
2007,08,15,10,10,19.30
2007,08,15,10,11,19.30
2007,08,15,10,12,19.30
2007,08,15,10,13,19.30
2007,08,15,10,14,19.30
2007,08,15,10,15,19.30
2007,08,15,10,16,19.30
2007,08,15,10,17,19.40
2007,08,15,10,18,19.40
2007,08,15,10,19,19.40
2007,08,15,10,20,19.50
2007,08,15,10,21,19.60
2007,08,15,10,22,19.60
2007,08,15,10,23,19.60
2007,08,15,10,24,19.60
2007,08,15,10,25,19.60
2007,08,15,10,26,19.70
2007,08,15,10,27,19.70
2007,08,15,10,28,19.70
2007,08,15,10,29,19.70
2007,08,15,10,30,19.80
2007,08,15,10,31,19.80
2007,08,15,10,32,19.90
2007,08,15,10,33,19.90
2007,08,15,10,34,19.90
2007,08,15,10,35,19.90
2007,08,15,10,36,19.90
2007,08,15,10,37,20.00
2007,08,15,10,38,20.00
2007,08,15,10,39,20.00
2007,08,15,10,40,20.00
2007,08,15,10,41,20.00
2007,08,15,10,42,20.10
2007,08,15,10,43,20.10
2007,08,15,10,44,20.10
2007,08,15,10,45,20.20
2007,08,15,10,46,20.20
2007,08,15,10,47,20.20
2007,08,15,10,48,20.20
2007,08,15,10,49,20.20
2007,08,15,10,50,20.30
2007,08,15,10,51,20.30
2007,08,15,10,52,20.30
2007,08,15,10,53,20.30
2007,08,15,10,54,20.40
2007,08,15,10,55,20.40
2007,08,15,10,56,20.40
2007,08,15,10,57,20.40
2007,08,15,10,58,20.40
2007,08,15,10,59,20.50
2007,08,15,11,00,20.60
2007,08,15,11,01,20.60
2007,08,15,11,02,20.70
2007,08,15,11,03,20.80
2007,08,15,11,04,20.70
2007,08,15,11,05,20.70
2007,08,15,11,06,20.80
2007,08,15,11,07,20.80
2007,08,15,11,08,20.90
2007,08,15,11,09,20.90
2007,08,15,11,10,20.80
2007,08,15,11,11,20.80
2007,08,15,11,12,20.80
2007,08,15,11,13,20.90
2007,08,15,11,14,21.00
2007,08,15,11,15,21.10
2007,08,15,11,16,21.20
2007,08,15,11,17,21.20
2007,08,15,11,18,21.30
2007,08,15,11,19,21.30
2007,08,15,11,20,21.30
2007,08,15,11,21,21.30
2007,08,15,11,22,21.30
2007,08,15,11,23,21.40
2007,08,15,11,24,21.50
2007,08,15,11,25,21.60
2007,08,15,11,26,21.60
2007,08,15,11,27,21.80
2007,08,15,11,28,21.90
2007,08,15,11,29,22.00
2007,08,15,11,30,22.10
2007,08,15,11,31,22.10
2007,08,15,11,32,22.20
2007,08,15,11,33,22.20
2007,08,15,11,34,22.20
2007,08,15,11,35,22.30
2007,08,15,11,36,22.30
2007,08,15,11,37,22.40
2007,08,15,11,38,22.50
2007,08,15,11,39,22.60
2007,08,15,11,40,22.50
2007,08,15,11,41,22.50
2007,08,15,11,42,22.30
2007,08,15,11,43,22.20
2007,08,15,11,44,22.10
2007,08,15,11,45,21.90
2007,08,15,11,46,21.80
2007,08,15,11,47,21.70
2007,08,15,11,48,21.60
2007,08,15,11,49,21.60
2007,08,15,11,50,21.60
2007,08,15,11,51,21.60
2007,08,15,11,52,21.60
2007,08,15,11,53,21.60
2007,08,15,11,54,21.60
2007,08,15,11,55,21.60
2007,08,15,11,56,21.60
2007,08,15,11,57,21.70
2007,08,15,11,58,21.80
2007,08,15,11,59,21.90
2007,08,15,12,00,22.00
2007,08,15,12,01,22.10
2007,08,15,12,02,22.10
2007,08,15,12,03,22.30
2007,08,15,12,04,22.40
2007,08,15,12,05,22.60
2007,08,15,12,06,22.70
2007,08,15,12,07,22.70
2007,08,15,12,08,22.70
2007,08,15,12,09,22.80
2007,08,15,12,10,22.70
2007,08,15,12,11,22.70
2007,08,15,12,12,22.70
2007,08,15,12,13,22.70
2007,08,15,12,14,22.80
2007,08,15,12,15,22.80
2007,08,15,12,16,22.70
2007,08,15,12,17,22.70
2007,08,15,12,18,22.60
2007,08,15,12,19,22.70
2007,08,15,12,20,22.70
2007,08,15,12,21,22.80
2007,08,15,12,22,22.70
2007,08,15,12,23,22.80
2007,08,15,12,24,22.80
2007,08,15,12,25,22.80
2007,08,15,12,26,23.00
2007,08,15,12,27,23.10
2007,08,15,12,28,23.10
2007,08,15,12,29,23.00
2007,08,15,12,30,22.90
2007,08,15,12,31,22.80
2007,08,15,12,32,22.70
2007,08,15,12,33,22.70
2007,08,15,12,34,22.70
2007,08,15,12,35,22.80
2007,08,15,12,36,22.80
2007,08,15,12,37,22.80
2007,08,15,12,38,22.80
2007,08,15,12,39,22.80
2007,08,15,12,40,22.80
2007,08,15,12,41,22.80
2007,08,15,12,42,22.80
2007,08,15,12,43,22.80
2007,08,15,12,44,22.70
2007,08,15,12,45,22.70
2007,08,15,12,46,22.80
2007,08,15,12,47,22.80
2007,08,15,12,48,22.80
2007,08,15,12,49,22.90
2007,08,15,12,50,23.00
2007,08,15,12,51,23.00
2007,08,15,12,52,23.00
2007,08,15,12,53,22.90
2007,08,15,12,54,22.80
2007,08,15,12,55,22.80
2007,08,15,12,56,22.70
2007,08,15,12,57,22.70
2007,08,15,12,58,22.80
2007,08,15,12,59,22.80
2007,08,15,13,00,22.90
2007,08,15,13,01,22.90
2007,08,15,13,02,23.00
2007,08,15,13,03,23.10
2007,08,15,13,04,23.20
2007,08,15,13,05,23.20
2007,08,15,13,06,23.30
2007,08,15,13,07,23.30
2007,08,15,13,08,23.30
2007,08,15,13,09,23.40
2007,08,15,13,10,23.50
2007,08,15,13,11,23.60
2007,08,15,13,12,23.70
2007,08,15,13,13,23.70
2007,08,15,13,14,23.90
2007,08,15,13,15,24.00
2007,08,15,13,16,24.10
2007,08,15,13,17,24.10
2007,08,15,13,18,24.10
2007,08,15,13,19,24.10
2007,08,15,13,20,24.10
2007,08,15,13,21,24.00
2007,08,15,13,22,24.00
2007,08,15,13,23,23.90
2007,08,15,13,24,23.90
2007,08,15,13,25,23.90
2007,08,15,13,26,23.80
2007,08,15,13,27,23.70
2007,08,15,13,28,23.50
2007,08,15,13,29,23.40
2007,08,15,13,30,23.30
2007,08,15,13,31,23.10
2007,08,15,13,32,23.00
2007,08,15,13,33,22.80
2007,08,15,13,34,22.80
2007,08,15,13,35,22.80
2007,08,15,13,36,22.80
2007,08,15,13,37,22.80
2007,08,15,13,38,22.80
2007,08,15,13,39,22.80
2007,08,15,13,40,22.80
2007,08,15,13,41,22.80
2007,08,15,13,42,22.70
2007,08,15,13,43,22.60
2007,08,15,13,44,22.60
2007,08,15,13,45,22.70
2007,08,15,13,46,22.80
2007,08,15,13,47,22.80
2007,08,15,13,48,22.90
2007,08,15,13,49,23.10
2007,08,15,13,50,23.30
2007,08,15,13,51,23.50
2007,08,15,13,52,23.60
2007,08,15,13,53,23.70
2007,08,15,13,54,23.70
2007,08,15,13,55,23.70
2007,08,15,13,56,23.80
2007,08,15,13,57,23.90
2007,08,15,13,58,24.00
2007,08,15,13,59,24.00
2007,08,15,14,00,24.00
2007,08,15,14,01,24.00
2007,08,15,14,02,24.00
2007,08,15,14,03,24.10
2007,08,15,14,04,24.30
2007,08,15,14,05,24.40
2007,08,15,14,06,24.60
2007,08,15,14,07,24.70
2007,08,15,14,08,24.80
2007,08,15,14,09,25.00
2007,08,15,14,10,25.10
2007,08,15,14,11,25.10
2007,08,15,14,12,25.10
2007,08,15,14,13,25.10
2007,08,15,14,14,25.10
2007,08,15,14,15,25.10
2007,08,15,14,16,25.10
2007,08,15,14,17,25.10
2007,08,15,14,18,25.00
2007,08,15,14,19,24.90
2007,08,15,14,20,24.80
2007,08,15,14,21,24.70
2007,08,15,14,22,24.70
2007,08,15,14,23,24.70
2007,08,15,14,24,24.70
2007,08,15,14,25,24.50
2007,08,15,14,26,24.40
2007,08,15,14,27,24.20
2007,08,15,14,28,24.10
2007,08,15,14,29,24.00
2007,08,15,14,30,23.90
2007,08,15,14,31,23.90
2007,08,15,14,32,23.90
2007,08,15,14,33,24.00
2007,08,15,14,34,24.10
2007,08,15,14,35,24.00
2007,08,15,14,36,23.90
2007,08,15,14,37,23.90
2007,08,15,14,38,24.00
2007,08,15,14,39,24.10
2007,08,15,14,40,24.20
2007,08,15,14,41,24.40
2007,08,15,14,42,24.40
2007,08,15,14,43,24.50
2007,08,15,14,44,24.50
2007,08,15,14,45,24.50
2007,08,15,14,46,24.40
2007,08,15,14,47,24.30
2007,08,15,14,48,24.30
2007,08,15,14,49,24.30
2007,08,15,14,50,24.30
2007,08,15,14,51,24.30
2007,08,15,14,52,24.20
2007,08,15,14,53,24.20
2007,08,15,14,54,24.20
2007,08,15,14,55,24.20
2007,08,15,14,56,24.30
2007,08,15,14,57,24.30
2007,08,15,14,58,24.40
2007,08,15,14,59,24.40
2007,08,15,15,00,24.40
2007,08,15,15,01,24.30
2007,08,15,15,02,24.30
2007,08,15,15,03,24.30
2007,08,15,15,04,24.30
2007,08,15,15,05,24.40
2007,08,15,15,06,24.30
2007,08,15,15,07,24.20
2007,08,15,15,08,24.20
2007,08,15,15,09,24.10
2007,08,15,15,10,24.00
2007,08,15,15,11,24.00
2007,08,15,15,12,24.10
2007,08,15,15,13,24.20
2007,08,15,15,14,24.20
2007,08,15,15,15,24.20
2007,08,15,15,16,24.20
2007,08,15,15,17,24.30
2007,08,15,15,18,24.40
2007,08,15,15,19,24.40
2007,08,15,15,20,24.40
2007,08,15,15,21,24.40
2007,08,15,15,22,24.40
2007,08,15,15,23,24.50
2007,08,15,15,24,24.60
2007,08,15,15,25,24.60
2007,08,15,15,26,24.50
2007,08,15,15,27,24.50
2007,08,15,15,28,24.50
2007,08,15,15,29,24.60
2007,08,15,15,30,24.50
2007,08,15,15,31,24.40
2007,08,15,15,32,24.40
2007,08,15,15,33,24.30
2007,08,15,15,34,24.30
2007,08,15,15,35,24.30
2007,08,15,15,36,24.10
2007,08,15,15,37,24.10
2007,08,15,15,38,24.00
2007,08,15,15,39,24.00
2007,08,15,15,40,24.00
2007,08,15,15,41,23.90
2007,08,15,15,42,23.80
2007,08,15,15,43,23.70
2007,08,15,15,44,23.70
2007,08,15,15,45,23.70
2007,08,15,15,46,23.60
2007,08,15,15,47,23.60
2007,08,15,15,48,23.50
2007,08,15,15,49,23.50
2007,08,15,15,50,23.50
2007,08,15,15,51,23.50
2007,08,15,15,52,23.50
2007,08,15,15,53,23.60
2007,08,15,15,54,23.70
2007,08,15,15,55,23.80
2007,08,15,15,56,23.80
2007,08,15,15,57,23.80
2007,08,15,15,58,23.90
2007,08,15,15,59,24.00
2007,08,15,16,00,24.00
2007,08,15,16,01,24.10
2007,08,15,16,02,24.10
2007,08,15,16,03,24.10
2007,08,15,16,04,24.20
2007,08,15,16,05,24.20
2007,08,15,16,06,24.20
2007,08,15,16,07,24.20
2007,08,15,16,08,24.30
2007,08,15,16,09,24.40
2007,08,15,16,10,24.40
2007,08,15,16,11,24.40
2007,08,15,16,12,24.30
2007,08,15,16,13,24.30
2007,08,15,16,14,24.20
2007,08,15,16,15,24.30
2007,08,15,16,16,24.40
2007,08,15,16,17,24.60
2007,08,15,16,18,24.70
2007,08,15,16,19,24.80
2007,08,15,16,20,24.70
2007,08,15,16,21,24.70
2007,08,15,16,22,24.60
2007,08,15,16,23,24.60
2007,08,15,16,24,24.70
2007,08,15,16,25,24.80
2007,08,15,16,26,24.90
2007,08,15,16,27,25.00
2007,08,15,16,28,25.10
2007,08,15,16,29,25.10
2007,08,15,16,30,25.10
2007,08,15,16,31,25.10
2007,08,15,16,32,25.00
2007,08,15,16,33,25.00
2007,08,15,16,34,25.00
2007,08,15,16,35,24.90
2007,08,15,16,36,24.90
2007,08,15,16,37,24.90
2007,08,15,16,38,24.90
2007,08,15,16,39,24.90
2007,08,15,16,40,25.00
2007,08,15,16,41,25.10
2007,08,15,16,42,25.10
2007,08,15,16,43,25.10
2007,08,15,16,44,25.10
2007,08,15,16,45,25.10
2007,08,15,16,46,25.00
2007,08,15,16,47,25.00
2007,08,15,16,48,24.90
2007,08,15,16,49,24.90
2007,08,15,16,50,24.90
2007,08,15,16,51,24.80
2007,08,15,16,52,24.70
2007,08,15,16,53,24.60
2007,08,15,16,54,24.60
2007,08,15,16,55,24.60
2007,08,15,16,56,24.70
2007,08,15,16,57,24.70
2007,08,15,16,58,24.80
2007,08,15,16,59,24.80
2007,08,15,17,00,24.90
2007,08,15,17,01,25.00
2007,08,15,17,02,25.10
2007,08,15,17,03,25.30
2007,08,15,17,04,25.40
2007,08,15,17,05,25.50
2007,08,15,17,06,25.60
2007,08,15,17,07,25.70
2007,08,15,17,08,25.80
2007,08,15,17,09,25.80
2007,08,15,17,10,25.90
2007,08,15,17,11,25.90
2007,08,15,17,12,26.00
2007,08,15,17,13,26.10
2007,08,15,17,14,26.20
2007,08,15,17,15,26.30
2007,08,15,17,16,26.30
2007,08,15,17,17,26.40
2007,08,15,17,18,26.50
2007,08,15,17,19,26.70